User: anonymous   Login
Location: Unspecified
(0.0000°N, 0.0000°E)
Time: 22:47:35
(UTC+00:00)
Language:

AO-91 - Orbit

View from above orbital plane
View from above orbital plane
View from above satellite
View from above satellite

Ground track
Ground track

The orbit is defined by the following mean orbital elements,

1 43017U          26145.58258409 +.00000000 +00000-0 +44979-3 0 00003
2 43017  97.4740  13.2645 0153037  47.1552 314.2419 15.12246380    08
Epoch (UTC): 25 May 2026 13:58:55
Eccentricity: 0.0153037
inclination: 97.4740°
perigee height: 424 km
apogee height: 635 km
right ascension of ascending node: 13.2645°
argument of perigee: 47.1552°
revolutions per day: 15.12246380
mean anomaly at epoch: 314.2419°

The dashed part of the orbit path shows where the satellite is in the earth's shadow,  

DLR